Location: Buckland
(65.9785°N, 161.1281°W)
Time: 03:28:10
(UTC+00:00)

Transit 4A - Pass Details

Date: 04 December 2020
Orbit: 864 x 980 km, 66.8° (Epoch: 26 January)

Event Time Altitude Azimuth Distance (km) Brightness Sun altitude
Rises 17:15:19 0° 183° (S) 3,658 11.2 -16.4°
Reaches altitude 10° 17:18:14 10° 171° (S) 2,724 10.7 -16.1°
Maximum altitude 17:23:23 27° 117° (ESE) 1,808 10.3 -15.6°
Drops below altitude 10° 17:28:34 10° 63° (ENE) 2,742 11.0 -15.1°
Sets 17:31:31 0° 52° (NE) 3,688 11.5 -14.8°
